EW5461 Weather Reports


Display with metric or nautical units.
time (UTC)temp
F
wind
direction
speed
MPH
gust
MPH
rain 1hr
in
rain 24hr
in
rain mn
in
humidity
%
barometer
mb
20260506221548 65 25 4.0 10.0 0.00 0.04 0.04 69 1012.2
20260506220048 65 5 8.0 12.0 0.00 0.04 0.04 69 1012.3
20260506214545 65 327 3.0 11.0 0.00 0.04 0.04 71 1012.4
20260506213053 65 27 4.0 10.0 0.00 0.04 0.04 72 1012.6
20260506211539 63 44 3.0 12.0 0.00 0.04 0.04 73 1012.6
20260506210039 62 34 3.0 10.0 0.00 0.04 0.04 73 1012.7
20260506204543 62 339 2.0 6.0 0.00 0.04 0.04 71 1012.9
20260506203037 62 360 3.0 10.0 0.00 0.04 0.04 73 1012.8
20260506201536 62 5 5.0 10.0 0.00 0.04 0.04 73 1013.3
20260506200034 61 10 1.0 5.0 0.00 0.04 0.04 74 1013.4
20260506194536 61 347 3.0 9.0 0.00 0.04 0.04 73 1013.5
20260506193033 60 30 2.0 8.0 0.00 0.04 0.04 74 1013.8
20260506191530 58 360 4.0 9.0 0.00 0.04 0.04 75 1014.1
20260506190030 58 5 3.0 8.0 0.00 0.04 0.04 76 1014.1
20260506184529 58 5 4.0 10.0 0.00 0.04 0.04 76 1013.9
20260506183028 58 17 5.0 16.0 0.00 0.04 0.04 78 1013.1
20260506181527 56 5 7.0 14.0 0.00 0.04 0.04 78 1013.1
20260506180027 56 13 6.0 13.0 0.00 0.04 0.04 80 1013.2
20260506174526 55 21 8.0 14.0 0.00 0.04 0.04 80 1013.7
20260506173026 55 34 3.0 13.0 0.00 0.04 0.04 84 1013.5
20260506171527 53 28 6.0 14.0 0.00 0.04 0.04 83 1013.5
20260506170025 53 360 7.0 15.0 0.00 0.04 0.04 84 1013.2
20260506164525 53 44 3.0 8.0 0.00 0.04 0.04 86 1013.7
20260506163046 53 355 4.0 14.0 0.00 0.04 0.04 86 1013.9
20260506161524 52 9 4.0 12.0 0.00 0.04 0.04 87 1013.7
20260506160023 52 12 9.0 20.0 0.01 0.04 0.04 88 1012.7
20260506154520 52 5 10.0 19.0 0.04 0.04 0.04 90 1012.8
20260506153020 51 342 4.0 8.0 0.04 0.04 0.04 90 1014.0
20260506151519 51 339 5.0 12.0 0.04 0.04 0.04 90 1013.8
20260506150017 51 355 4.0 8.0 0.02 0.02 0.02 88 1014.7
20260506144514 51 317 5.0 8.0 0.00 0.00 0.00 87 1014.9
20260506143013 51 337 4.0 14.0 0.00 0.00 0.00 87 1014.3
20260506141513 51 5 4.0 12.0 0.00 0.00 0.00 86 1013.3
20260506140010 51 10 7.0 12.0 0.00 0.00 0.00 85 1014.0
20260506134509 51 338 8.0 13.0 0.00 0.00 0.00 85 1013.8
20260506133005 51 13 5.0 12.0 0.00 0.00 0.00 85 1013.0
20260506131504 51 32 6.0 13.0 0.00 0.00 0.00 85 1012.8
20260506130000 51 14 8.0 18.0 0.00 0.00 0.00 84 1012.5
20260506124559 51 350 8.0 15.0 0.00 0.00 0.00 84 1012.1
20260506123057 51 49 9.0 17.0 0.00 0.00 0.00 83 1012.2
20260506121553 52 344 8.0 20.0 0.00 0.00 0.00 82 1012.0
20260506120057 53 5 7.0 17.0 0.00 0.00 0.00 80 1011.8
20260506114556 53 14 5.0 14.0 0.00 0.00 0.00 79 1011.7
20260506113046 53 19 8.0 15.0 0.00 0.00 0.00 78 1011.3
20260506111543 54 316 9.0 15.0 0.00 0.00 0.00 77 1011.2
20260506110039 54 360 5.0 12.0 0.00 0.00 0.00 78 1010.7
20260506104538 55 347 8.0 15.0 0.00 0.00 0.00 77 1010.5
20260506103035 55 346 9.0 15.0 0.00 0.00 0.00 77 1010.4
20260506101533 55 350 7.0 12.0 0.00 0.00 0.00 79 1010.1
20260506100029 56 53 7.0 14.0 0.00 0.00 0.00 78 1009.8
20260506094528 56 18 7.0 12.0 0.00 0.00 0.00 78 1009.3
20260506093030 56 355 4.0 13.0 0.00 0.00 0.00 79 1009.4
20260506091524 56 355 4.0 9.0 0.00 0.00 0.00 79 1009.3
20260506090023 56 19 7.0 13.0 0.00 0.00 0.00 79 1009.2
20260506084519 56 350 7.0 11.0 0.00 0.00 0.00 79 1009.2
20260506083017 56 338 7.0 13.0 0.00 0.00 0.00 78 1008.9
20260506081513 56 350 8.0 15.0 0.00 0.00 0.00 79 1008.9
20260506073006 57 12 4.0 9.0 0.00 0.00 0.00 80 1008.7
20260506071505 57 9 3.0 6.0 0.00 0.00 0.00 81 1008.2
20260506061552 59 355 5.0 10.0 0.00 0.00 0.00 81 1008.4
20260506044544 61 350 6.0 12.0 0.00 0.00 0.00 79 1008.3
20260506043036 61 22 6.0 13.0 0.00 0.00 0.00 79 1008.2
20260506041533 62 44 5.0 16.0 0.00 0.00 0.00 79 1008.1
20260506040050 62 360 8.0 14.0 0.00 0.00 0.00 79 1008.2
20260506034527 63 360 9.0 14.0 0.00 0.00 0.00 78 1007.9
20260506033023 64 345 8.0 13.0 0.00 0.00 0.00 77 1007.5
20260506031536 65 345 5.0 11.0 0.00 0.00 0.00 77 1007.1
20260506030016 65 350 8.0 12.0 0.00 0.00 0.00 76 1006.7
20260506024519 66 355 7.0 13.0 0.00 0.00 0.00 75 1006.6
20260506023011 66 351 6.0 12.0 0.00 0.00 0.00 74 1006.3
20260506021509 67 15 6.0 12.0 0.00 0.00 0.00 74 1006.1
20260506020005 67 344 7.0 12.0 0.00 0.00 0.00 74 1005.8
20260506014501 68 12 6.0 12.0 0.00 0.00 0.00 74 1005.4
20260506013058 68 9 10.0 14.0 0.00 0.00 0.00 72 1005.0
20260506011558 69 16 6.0 13.0 0.00 0.00 0.00 72 1004.5
20260506010057 70 355 8.0 15.0 0.00 0.00 0.00 71 1004.3
20260506004551 71 355 8.0 12.0 0.00 0.00 0.00 71 1003.9
20260506003049 72 11 6.0 13.0 0.00 0.00 0.00 70 1003.9
20260506001547 73 5 11.0 16.0 0.00 0.00 0.00 68 1003.6
20260506000047 74 324 10.0 16.0 0.00 0.00 0.00 67 1003.4
20260505234555 75 350 9.0 15.0 0.00 0.00 0.00 66 1003.3
20260505233051 76 333 9.0 16.0 0.00 0.00 0.00 65 1003.2
20260505231551 77 360 8.0 16.0 0.00 0.00 0.00 64 1003.2
20260505230043 79 27 8.0 15.0 0.00 0.00 0.00 63 1002.8
20260505224543 79 297 8.0 14.0 0.00 0.00 0.00 63 1002.9
20260505223050 81 15 6.0 18.0 0.00 0.00 0.00 62 1002.4